Ann Arbor, MI

11:04 AM EDT on April 26, 2017 (GMT -0400)
Ann Arbor Municipal

Weather History for KARB - July, 2014

Change the Weather History Date:

Sunday, July 20, 2014

  Actual Average Record
Temperature  
Mean Temperature 66 °F -  
Max Temperature 82 °F 80 °F 96 °F (2011)
Min Temperature 52 °F 56 °F 48 °F (2000)
Cooling Degree Days 1    
Growing Degree Days 16 (Base 50)    
Moisture  
Dew Point 55 °F    
Average Humidity 82    
Maximum Humidity 100    
Minimum Humidity 42    
Precipitation  
Precipitation 0.00 in - - ()
Sea Level Pressure  
Sea Level Pressure 30.06 in    
Wind  
Wind Speed 1 mph (SSW)    
Max Wind Speed 5 mph    
Max Gust Speed -    
Visibility 4 miles    
Events Fog    
Averages and records for this station are not official NWS values.
T = Trace of Precipitation, MM = Missing Value Source: NWS Daily Summary

Daily Weather History Graph

Daily Weather History Graph

Search for Another Location

Airport or City:

Trip Planner

Search our weather history database for the weather conditions in past years. The results will help you decide how hot, cold, wet, or windy it might be!

Date:

Astronomy

Jul. 20, 2014 Rise Set
Actual Time 6:16 AM EDT 9:05 PM EDT
Civil Twilight 5:43 AM EDT 9:38 PM EDT
Nautical Twilight 5:01 AM EDT 10:20 PM EDT
Astronomical Twilight 4:13 AM EDT 11:08 PM EDT
Moon 1:29 AM EDT (7/20) 3:46 PM EDT (7/20)
Length of Visible Light 15h 55m
Length of Day
14h 49m
Waning Crescent, 34% of the Moon is Illuminated
Jul 20
Waning Crescent
Jul 26
New
Aug 3
First Quarter
Aug 10
Full
Aug 17
Last Quarter

Hourly Weather History & Observations

Time (EDT) Temp. Heat Index Dew Point Humidity Pressure Visibility Wind Dir Wind Speed Gust Speed Precip Events Conditions
12:08 AM 57.9 °F - 55.9 °F 93% 30.07 in 1.8 mi West 4.6 mph - N/A   Clear
12:10 AM 57.9 °F - 55.0 °F 90% 30.07 in 4.0 mi West 4.6 mph - N/A   Clear
12:28 AM 57.9 °F - 55.9 °F 93% 30.06 in 1.5 mi Calm Calm - N/A   Clear
12:30 AM 57.9 °F - 55.0 °F 90% 30.06 in 0.8 mi Calm Calm - N/A   Clear
12:45 AM 57.0 °F - 55.0 °F 93% 30.06 in 2.0 mi Calm Calm - N/A   Clear
12:48 AM 57.2 °F - 53.6 °F 88% 30.06 in 1.0 mi Calm Calm - N/A   Clear
12:53 AM 57.0 °F - 55.0 °F 93% 30.05 in 0.5 mi Calm Calm - N/A Fog Fog
1:13 AM 57.0 °F - 55.0 °F 93% 30.06 in 1.2 mi WNW 3.5 mph - N/A   Partly Cloudy
1:15 AM 57.0 °F - 55.0 °F 93% 30.06 in 0.8 mi Calm Calm - N/A   Mist
1:53 AM 55.9 °F - 55.0 °F 97% 30.05 in 0.2 mi Calm Calm - N/A Fog Fog
2:15 AM 55.0 °F - 52.0 °F 89% 30.05 in 0.2 mi Calm Calm - N/A Fog Fog
2:45 AM 54.0 °F - 53.1 °F 97% 30.05 in 1.5 mi Calm Calm - N/A   Mostly Cloudy
2:48 AM 55.4 °F - 53.6 °F 94% 30.04 in 0.8 mi Calm Calm - N/A   Mist
2:53 AM 55.0 °F - 52.0 °F 89% 30.04 in 0.2 mi Calm Calm - N/A Fog Fog
3:21 AM 53.1 °F - 52.0 °F 96% 30.05 in 0.2 mi Calm Calm - N/A Fog Fog
3:32 AM 53.1 °F - 51.1 °F 93% 30.04 in 0.2 mi Calm Calm - N/A Fog Fog
3:53 AM 52.0 °F - 50.0 °F 93% 30.04 in 0.2 mi Calm Calm - N/A Fog Fog
4:05 AM 53.1 °F - 52.0 °F 96% 30.04 in 1.5 mi Calm Calm - N/A   Overcast
4:09 AM 52.0 °F - 50.0 °F 93% 30.04 in 0.8 mi Calm Calm - N/A   Mist
4:53 AM 54.0 °F - 52.0 °F 93% 30.04 in 0.2 mi Calm Calm - N/A Fog Fog
5:46 AM 55.9 °F - 54.0 °F 93% 30.06 in 0.2 mi Calm Calm - N/A Fog Fog
5:53 AM 54.0 °F - 53.1 °F 97% 30.06 in 0.2 mi Calm Calm - N/A Fog Fog
6:19 AM 54.0 °F - 52.0 °F 93% 30.07 in 0.5 mi Calm Calm - N/A Fog Fog
6:43 AM 55.0 °F - 53.1 °F 93% 30.07 in 1.8 mi Calm Calm - N/A   Partly Cloudy
6:45 AM 55.0 °F - 53.1 °F 93% 30.07 in 4.0 mi Calm Calm - N/A   Partly Cloudy
6:48 AM 53.6 °F - 53.6 °F 100% 30.07 in 0.8 mi Calm Calm - N/A   Clear
6:53 AM 54.0 °F - 52.0 °F 93% 30.07 in 0.2 mi Calm Calm - N/A Fog Fog
7:10 AM 55.0 °F - 53.1 °F 93% 30.07 in 4.0 mi Calm Calm - N/A   Clear
7:53 AM 57.9 °F - 55.9 °F 93% 30.08 in 5.0 mi Calm Calm - N/A   Clear
8:53 AM 64.0 °F - 61.0 °F 90% 30.09 in 7.0 mi Calm Calm - N/A   Clear
9:53 AM 71.1 °F - 63.0 °F 75% 30.09 in 10.0 mi Calm Calm - N/A   Clear
10:53 AM 75.0 °F - 62.1 °F 64% 30.09 in 10.0 mi Variable 4.6 mph - N/A   Clear
11:53 AM 77.0 °F - 61.0 °F 58% 30.08 in 10.0 mi Variable 4.6 mph - N/A   Partly Cloudy
12:53 PM 78.1 °F - 61.0 °F 56% 30.08 in 10.0 mi East 3.5 mph - N/A   Mostly Cloudy
1:53 PM 77.0 °F - 57.9 °F 52% 30.07 in 10.0 mi Calm Calm - N/A   Mostly Cloudy
2:53 PM 78.1 °F - 55.9 °F 46% 30.06 in 10.0 mi Calm Calm - N/A   Mostly Cloudy
3:53 PM 80.1 °F 80.1 °F 55.0 °F 42% 30.05 in 10.0 mi Calm Calm - N/A   Scattered Clouds
4:53 PM 79.0 °F - 55.9 °F 45% 30.05 in 10.0 mi Calm Calm - N/A   Overcast
5:53 PM 80.1 °F 80.2 °F 55.9 °F 43% 30.04 in 10.0 mi Calm Calm - N/A   Clear
6:53 PM 79.0 °F - 57.0 °F 47% 30.04 in 10.0 mi SE 3.5 mph - N/A   Clear
7:53 PM 78.1 °F - 59.0 °F 52% 30.04 in 10.0 mi Calm Calm - N/A   Clear
8:53 PM 72.0 °F - 61.0 °F 68% 30.04 in 10.0 mi SE 4.6 mph - N/A   Clear
9:53 PM 68.0 °F - 59.0 °F 73% 30.07 in 10.0 mi Calm Calm - N/A   Clear
10:53 PM 62.1 °F - 57.9 °F 86% 30.08 in 10.0 mi Calm Calm - N/A   Clear
11:53 PM 60.1 °F - 57.0 °F 90% 30.08 in 9.0 mi Calm Calm - N/A   Clear